,,PressureMeas_1m,,PRMeasQMR101_1,,RHStat155_1m_1,,SRMeasQMS101R_1m,,TAStat155_1m_1,,GenWind_1,,GenWind_1,
2017-07-14, 07:00:06,VALID,918.16,VALID,0.0,VALID,98.01,VALID,92.017,VALID,19.745,VALID,17.0,VALID,0.693,
2017-07-14, 07:01:06,VALID,918.193,VALID,0.0,VALID,98.075,VALID,96.445,VALID,19.802,VALID,19.0,VALID,0.804,
2017-07-14, 07:02:06,VALID,918.222,VALID,0.0,VALID,98.017,VALID,105.853,VALID,19.813,VALID,353.0,VALID,0.2,
2017-07-14, 07:03:06,VALID,918.255,VALID,0.0,VALID,98.07,VALID,118.065,VALID,19.86,VALID,252.0,VALID,0.013,
2017-07-14, 07:04:06,VALID,918.276,VALID,0.0,VALID,97.789,VALID,121.652,VALID,19.826,VALID,239.0,VALID,0.034,
2017-07-14, 07:05:06,VALID,918.283,VALID,0.0,VALID,97.674,VALID,121.024,VALID,19.832,VALID,312.0,VALID,0.0,
2017-07-14, 07:06:06,VALID,918.305,VALID,0.0,VALID,97.678,VALID,120.069,VALID,19.886,VALID,338.0,VALID,0.0,
2017-07-14, 07:07:06,VALID,918.323,VALID,0.0,VALID,97.723,VALID,117.162,VALID,19.95,VALID,352.0,VALID,0.0,
2017-07-14, 07:08:06,VALID,918.336,VALID,0.0,VALID,97.585,VALID,114.313,VALID,19.977,VALID,32.0,VALID,0.0,
2017-07-14, 07:09:06,VALID,918.343,VALID,0.0,VALID,97.122,VALID,115.805,VALID,19.915,VALID,310.0,VALID,0.802,
2017-07-14, 07:10:06,VALID,918.36,VALID,0.0,VALID,96.645,VALID,133.93,VALID,19.859,VALID,326.0,VALID,0.262,
2017-07-14, 07:11:06,VALID,918.381,VALID,0.0,VALID,96.987,VALID,107.41,VALID,19.913,VALID,329.0,VALID,0.07,
2017-07-14, 07:12:06,VALID,918.387,VALID,0.0,VALID,96.841,VALID,99.355,VALID,19.929,VALID,273.0,VALID,0.015,
2017-07-14, 07:13:06,VALID,918.403,VALID,0.0,VALID,96.898,VALID,95.697,VALID,19.965,VALID,257.0,VALID,0.025,
2017-07-14, 07:14:06,VALID,918.433,VALID,0.0,VALID,96.572,VALID,96.059,VALID,19.967,VALID,237.0,VALID,0.075,
2017-07-14, 07:15:06,VALID,918.455,VALID,0.0,VALID,96.538,VALID,97.312,VALID,20.01,VALID,232.0,VALID,0.0,
2017-07-14, 07:16:06,VALID,918.472,VALID,0.0,VALID,96.52,VALID,91.977,VALID,20.06,VALID,299.0,VALID,0.046,
2017-07-14, 07:17:06,VALID,918.483,VALID,0.0,VALID,96.619,VALID,87.115,VALID,20.12,VALID,8.0,VALID,0.214,
2017-07-14, 07:18:06,VALID,918.52,VALID,0.0,VALID,96.375,VALID,81.885,VALID,20.12,VALID,253.0,VALID,0.071,
2017-07-14, 07:19:06,VALID,918.544,VALID,0.0,VALID,95.99,VALID,74.612,VALID,20.095,VALID,185.0,VALID,0.036,
2017-07-14, 07:20:06,VALID,918.578,VALID,0.0,VALID,96.082,VALID,70.75,VALID,20.129,VALID,7.0,VALID,0.094,
2017-07-14, 07:21:06,VALID,918.623,VALID,0.0,VALID,95.985,VALID,69.465,VALID,20.149,VALID,357.0,VALID,0.0,
2017-07-14, 07:22:06,VALID,918.654,VALID,0.0,VALID,95.806,VALID,71.016,VALID,20.17,VALID,328.0,VALID,0.006,
2017-07-14, 07:23:06,VALID,918.659,VALID,0.0,VALID,95.653,VALID,72.793,VALID,20.184,VALID,259.0,VALID,0.001,
2017-07-14, 07:24:06,VALID,918.671,VALID,0.0,VALID,95.192,VALID,75.63,VALID,20.164,VALID,219.0,VALID,0.0,
2017-07-14, 07:25:06,VALID,918.695,VALID,0.0,VALID,95.363,VALID,75.177,VALID,20.174,VALID,241.0,VALID,0.0,
2017-07-14, 07:26:06,VALID,918.705,VALID,0.0,VALID,96.027,VALID,72.303,VALID,20.228,VALID,240.0,VALID,0.0,
2017-07-14, 07:27:06,VALID,918.733,VALID,0.0,VALID,95.424,VALID,71.696,VALID,20.2,VALID,240.0,VALID,0.0,
2017-07-14, 07:28:06,VALID,918.742,VALID,0.0,VALID,95.355,VALID,72.76,VALID,20.224,VALID,240.0,VALID,0.0,
2017-07-14, 07:29:06,VALID,918.752,VALID,0.0,VALID,95.502,VALID,74.294,VALID,20.267,VALID,240.0,VALID,0.0,
2017-07-14, 07:30:06,VALID,918.759,VALID,0.0,VALID,94.993,VALID,77.175,VALID,20.26,VALID,311.0,VALID,0.435,
2017-07-14, 07:31:06,VALID,918.764,VALID,0.0,VALID,95.74,VALID,77.496,VALID,20.315,VALID,39.0,VALID,0.221,
2017-07-14, 07:32:06,VALID,918.788,VALID,0.0,VALID,95.689,VALID,74.403,VALID,20.32,VALID,32.0,VALID,0.402,
2017-07-14, 07:33:06,VALID,918.786,VALID,0.0,VALID,95.513,VALID,74.643,VALID,20.269,VALID,13.0,VALID,0.528,
2017-07-14, 07:34:06,VALID,918.798,VALID,0.0,VALID,95.874,VALID,75.813,VALID,20.259,VALID,288.0,VALID,0.279,
2017-07-14, 07:35:06,VALID,918.804,VALID,0.0,VALID,95.546,VALID,79.329,VALID,20.224,VALID,234.0,VALID,0.521,
2017-07-14, 07:36:06,VALID,918.806,VALID,0.0,VALID,95.347,VALID,84.352,VALID,20.183,VALID,236.0,VALID,1.09,
2017-07-14, 07:37:06,VALID,918.808,VALID,0.0,VALID,95.441,VALID,80.855,VALID,20.161,VALID,261.0,VALID,0.91,
2017-07-14, 07:38:06,VALID,918.829,VALID,0.0,VALID,95.237,VALID,83.226,VALID,20.143,VALID,313.0,VALID,0.922,
2017-07-14, 07:39:06,VALID,918.837,VALID,0.0,VALID,96.259,VALID,86.072,VALID,20.219,VALID,103.0,VALID,0.785,
2017-07-14, 07:40:06,VALID,918.879,VALID,0.0,VALID,95.955,VALID,86.731,VALID,20.21,VALID,223.0,VALID,0.671,
2017-07-14, 07:41:06,VALID,918.908,VALID,0.0,VALID,95.545,VALID,84.13,VALID,20.186,VALID,231.0,VALID,0.219,
2017-07-14, 07:42:06,VALID,918.954,VALID,0.0,VALID,95.776,VALID,81.434,VALID,20.206,VALID,230.0,VALID,0.233,
2017-07-14, 07:43:06,VALID,918.974,VALID,0.0,VALID,95.58,VALID,78.746,VALID,20.202,VALID,248.0,VALID,0.202,
2017-07-14, 07:44:06,VALID,918.997,VALID,0.0,VALID,95.285,VALID,84.448,VALID,20.206,VALID,250.0,VALID,0.31,
2017-07-14, 07:45:06,VALID,919.005,VALID,0.0,VALID,95.416,VALID,91.29,VALID,20.215,VALID,217.0,VALID,0.174,
2017-07-14, 07:46:06,VALID,919.012,VALID,0.0,VALID,95.359,VALID,94.118,VALID,20.197,VALID,240.0,VALID,0.327,
2017-07-14, 07:47:06,VALID,919.039,VALID,0.0,VALID,95.469,VALID,93.855,VALID,20.169,VALID,260.0,VALID,0.622,
2017-07-14, 07:48:06,VALID,919.064,VALID,0.0,VALID,95.289,VALID,89.733,VALID,20.128,VALID,232.0,VALID,0.611,
2017-07-14, 07:49:06,VALID,919.067,VALID,0.0,VALID,95.946,VALID,101.126,VALID,20.164,VALID,208.0,VALID,0.002,
2017-07-14, 07:50:06,VALID,919.07,VALID,0.0,VALID,96.206,VALID,109.45,VALID,20.21,VALID,349.0,VALID,0.184,
2017-07-14, 07:51:06,VALID,919.067,VALID,0.0,VALID,95.908,VALID,117.202,VALID,20.22,VALID,22.0,VALID,0.114,
2017-07-14, 07:52:06,VALID,919.083,VALID,0.0,VALID,96.254,VALID,124.753,VALID,20.285,VALID,331.0,VALID,0.1,
2017-07-14, 07:53:06,VALID,919.081,VALID,0.0,VALID,95.996,VALID,131.197,VALID,20.306,VALID,351.0,VALID,0.0,
2017-07-14, 07:54:06,VALID,919.073,VALID,0.0,VALID,95.089,VALID,137.783,VALID,20.307,VALID,357.0,VALID,0.0,
2017-07-14, 07:55:06,VALID,919.067,VALID,0.0,VALID,95.544,VALID,145.763,VALID,20.393,VALID,40.0,VALID,0.177,
2017-07-14, 07:56:06,VALID,919.072,VALID,0.0,VALID,95.004,VALID,158.968,VALID,20.432,VALID,357.0,VALID,0.593,
2017-07-14, 07:57:06,VALID,919.055,VALID,0.0,VALID,94.391,VALID,154.236,VALID,20.415,VALID,349.0,VALID,1.267,
2017-07-14, 07:58:06,VALID,919.061,VALID,0.0,VALID,94.46,VALID,153.708,VALID,20.394,VALID,1.0,VALID,0.882,
2017-07-14, 07:59:06,VALID,919.066,VALID,0.0,VALID,95.491,VALID,155.139,VALID,20.455,VALID,7.0,VALID,0.247,
2017-07-14, 08:00:06,VALID,919.073,VALID,0.0,VALID,94.995,VALID,158.207,VALID,20.455,VALID,317.0,VALID,0.38,
2017-07-14, 08:01:06,VALID,919.063,VALID,0.0,VALID,94.874,VALID,162.758,VALID,20.461,VALID,350.0,VALID,0.505,
2017-07-14, 08:02:06,VALID,919.056,VALID,0.0,VALID,95.414,VALID,162.7,VALID,20.496,VALID,4.0,VALID,0.57,
2017-07-14, 08:03:06,VALID,919.054,VALID,0.0,VALID,95.744,VALID,155.517,VALID,20.517,VALID,7.0,VALID,1.159,
2017-07-14, 08:04:06,VALID,919.057,VALID,0.0,VALID,95.237,VALID,151.703,VALID,20.465,VALID,7.0,VALID,0.96,
2017-07-14, 08:05:06,VALID,919.062,VALID,0.0,VALID,95.802,VALID,153.52,VALID,20.465,VALID,354.0,VALID,0.671,
2017-07-14, 08:06:06,VALID,919.075,VALID,0.0,VALID,95.205,VALID,156.602,VALID,20.411,VALID,339.0,VALID,1.061,
2017-07-14, 08:07:06,VALID,919.065,VALID,0.0,VALID,95.886,VALID,163.458,VALID,20.426,VALID,353.0,VALID,1.312,
2017-07-14, 08:08:06,VALID,919.06,VALID,0.0,VALID,95.197,VALID,168.232,VALID,20.358,VALID,355.0,VALID,1.507,
2017-07-14, 08:09:06,VALID,919.07,VALID,0.0,VALID,95.133,VALID,169.172,VALID,20.369,VALID,352.0,VALID,1.065,
2017-07-14, 08:10:06,VALID,919.064,VALID,0.0,VALID,95.305,VALID,169.646,VALID,20.405,VALID,343.0,VALID,0.92,
2017-07-14, 08:11:06,VALID,919.067,VALID,0.0,VALID,95.362,VALID,168.434,VALID,20.421,VALID,7.0,VALID,0.994,
2017-07-14, 08:12:06,VALID,919.078,VALID,0.0,VALID,95.778,VALID,166.972,VALID,20.466,VALID,16.0,VALID,0.684,
2017-07-14, 08:13:06,VALID,919.083,VALID,0.0,VALID,96.332,VALID,166.753,VALID,20.548,VALID,13.0,VALID,0.332,
2017-07-14, 08:14:06,VALID,919.094,VALID,0.0,VALID,96.496,VALID,165.746,VALID,20.615,VALID,19.0,VALID,0.519,
2017-07-14, 08:15:06,VALID,919.114,VALID,0.0,VALID,96.28,VALID,159.584,VALID,20.669,VALID,35.0,VALID,0.174,
2017-07-14, 08:16:06,VALID,919.115,VALID,0.0,VALID,96.102,VALID,153.943,VALID,20.734,VALID,88.0,VALID,0.08,
2017-07-14, 08:17:06,VALID,919.114,VALID,0.0,VALID,96.033,VALID,156.461,VALID,20.812,VALID,7.0,VALID,0.602,
2017-07-14, 08:18:06,VALID,919.118,VALID,0.0,VALID,96.192,VALID,161.329,VALID,20.88,VALID,13.0,VALID,0.617,
2017-07-14, 08:19:06,VALID,919.131,VALID,0.0,VALID,95.334,VALID,161.788,VALID,20.85,VALID,347.0,VALID,0.469,
2017-07-14, 08:20:06,VALID,919.137,VALID,0.0,VALID,93.938,VALID,158.349,VALID,20.782,VALID,357.0,VALID,0.399,
2017-07-14, 08:21:06,VALID,919.144,VALID,0.0,VALID,94.585,VALID,146.004,VALID,20.805,VALID,21.0,VALID,0.551,
2017-07-14, 08:22:06,VALID,919.147,VALID,0.0,VALID,94.403,VALID,146.469,VALID,20.8,VALID,325.0,VALID,0.287,
2017-07-14, 08:23:06,VALID,919.137,VALID,0.0,VALID,94.496,VALID,150.227,VALID,20.82,VALID,11.0,VALID,0.702,
2017-07-14, 08:24:06,VALID,919.148,VALID,0.0,VALID,95.32,VALID,141.515,VALID,20.894,VALID,7.0,VALID,0.442,
2017-07-14, 08:25:06,VALID,919.15,VALID,0.0,VALID,94.803,VALID,140.769,VALID,20.883,VALID,15.0,VALID,0.79,
2017-07-14, 08:26:06,VALID,919.164,VALID,0.0,VALID,94.375,VALID,131.124,VALID,20.863,VALID,354.0,VALID,0.662,
2017-07-14, 08:27:06,VALID,919.172,VALID,0.0,VALID,94.994,VALID,126.736,VALID,20.91,VALID,358.0,VALID,0.811,
2017-07-14, 08:28:06,VALID,919.201,VALID,0.0,VALID,93.784,VALID,115.856,VALID,20.843,VALID,2.0,VALID,0.75,
2017-07-14, 08:29:06,VALID,919.216,VALID,0.0,VALID,94.305,VALID,94.215,VALID,20.824,VALID,343.0,VALID,0.749,
2017-07-14, 08:30:06,VALID,919.232,VALID,0.0,VALID,93.298,VALID,87.078,VALID,20.752,VALID,353.0,VALID,0.911,
2017-07-14, 08:31:06,VALID,919.241,VALID,0.0,VALID,93.915,VALID,79.16,VALID,20.696,VALID,6.0,VALID,1.478,
2017-07-14, 08:32:06,VALID,919.254,VALID,0.0,VALID,94.768,VALID,83.648,VALID,20.687,VALID,7.0,VALID,0.801,
2017-07-14, 08:33:06,VALID,919.252,VALID,0.0,VALID,95.323,VALID,98.186,VALID,20.71,VALID,21.0,VALID,0.74,
2017-07-14, 08:34:06,VALID,919.269,VALID,0.0,VALID,95.284,VALID,114.613,VALID,20.698,VALID,13.0,VALID,0.653,
2017-07-14, 08:35:06,VALID,919.258,VALID,0.0,VALID,95.268,VALID,132.987,VALID,20.697,VALID,14.0,VALID,1.005,
2017-07-14, 08:36:06,VALID,919.273,VALID,0.0,VALID,95.61,VALID,133.447,VALID,20.739,VALID,9.0,VALID,0.977,
2017-07-14, 08:37:06,VALID,919.277,VALID,0.0,VALID,95.84,VALID,114.683,VALID,20.784,VALID,29.0,VALID,1.361,
2017-07-14, 08:38:06,VALID,919.294,VALID,0.0,VALID,95.596,VALID,100.27,VALID,20.786,VALID,11.0,VALID,1.318,
2017-07-14, 08:39:06,VALID,919.321,VALID,0.0,VALID,94.286,VALID,87.929,VALID,20.68,VALID,9.0,VALID,1.33,
2017-07-14, 08:40:06,VALID,919.328,VALID,0.0,VALID,95.025,VALID,91.435,VALID,20.632,VALID,25.0,VALID,1.001,
2017-07-14, 08:41:06,VALID,919.35,VALID,0.0,VALID,95.807,VALID,105.277,VALID,20.658,VALID,17.0,VALID,0.785,
2017-07-14, 08:42:06,VALID,919.363,VALID,0.0,VALID,95.855,VALID,106.78,VALID,20.667,VALID,32.0,VALID,0.205,
2017-07-14, 08:43:06,VALID,919.373,VALID,0.0,VALID,95.905,VALID,122.353,VALID,20.7,VALID,26.0,VALID,0.943,
2017-07-14, 08:44:06,VALID,919.414,VALID,0.0,VALID,95.936,VALID,147.009,VALID,20.721,VALID,2.0,VALID,0.689,
2017-07-14, 08:45:06,VALID,919.438,VALID,0.0,VALID,95.9,VALID,169.095,VALID,20.744,VALID,351.0,VALID,0.092,
2017-07-14, 08:46:06,VALID,919.468,VALID,0.0,VALID,96.228,VALID,198.11,VALID,20.811,VALID,344.0,VALID,0.409,
2017-07-14, 08:47:06,VALID,919.488,VALID,0.0,VALID,95.343,VALID,220.844,VALID,20.802,VALID,119.0,VALID,0.076,
2017-07-14, 08:48:06,VALID,919.502,VALID,0.0,VALID,95.337,VALID,229.066,VALID,20.86,VALID,314.0,VALID,0.838,
2017-07-14, 08:49:06,VALID,919.518,VALID,0.0,VALID,94.986,VALID,187.049,VALID,20.882,VALID,41.0,VALID,0.451,
2017-07-14, 08:50:06,VALID,919.516,VALID,0.0,VALID,95.038,VALID,172.672,VALID,20.929,VALID,119.0,VALID,0.239,
2017-07-14, 08:51:06,VALID,919.544,VALID,0.0,VALID,94.559,VALID,178.229,VALID,20.95,VALID,232.0,VALID,0.439,
2017-07-14, 08:52:06,VALID,919.54,VALID,0.0,VALID,94.565,VALID,199.661,VALID,20.974,VALID,340.0,VALID,0.252,
2017-07-14, 08:53:06,VALID,919.53,VALID,0.0,VALID,94.816,VALID,186.245,VALID,21.001,VALID,42.0,VALID,0.444,
2017-07-14, 08:54:06,VALID,919.521,VALID,0.0,VALID,95.103,VALID,173.218,VALID,21.015,VALID,3.0,VALID,0.723,
2017-07-14, 08:55:06,VALID,919.518,VALID,0.0,VALID,93.863,VALID,177.951,VALID,20.913,VALID,270.0,VALID,0.518,
2017-07-14, 08:56:06,VALID,919.546,VALID,0.0,VALID,94.285,VALID,191.673,VALID,20.866,VALID,234.0,VALID,1.226,
2017-07-14, 08:57:06,VALID,919.526,VALID,0.0,VALID,94.672,VALID,177.629,VALID,20.769,VALID,271.0,VALID,0.964,
2017-07-14, 08:58:06,VALID,919.517,VALID,0.0,VALID,94.941,VALID,163.286,VALID,20.697,VALID,340.0,VALID,0.984,
2017-07-14, 08:59:06,VALID,919.516,VALID,0.0,VALID,95.13,VALID,171.431,VALID,20.67,VALID,351.0,VALID,0.692,
2017-07-14, 09:00:06,VALID,919.507,VALID,0.0,VALID,95.674,VALID,161.199,VALID,20.69,VALID,335.0,VALID,1.014,
2017-07-14, 09:01:06,VALID,919.539,VALID,0.0,VALID,96.014,VALID,177.523,VALID,20.736,VALID,75.0,VALID,0.843,
2017-07-14, 09:02:06,VALID,919.571,VALID,0.0,VALID,95.888,VALID,174.376,VALID,20.74,VALID,148.0,VALID,0.617,
2017-07-14, 09:03:06,VALID,919.607,VALID,0.0,VALID,95.616,VALID,226.742,VALID,20.722,VALID,355.0,VALID,0.378,
2017-07-14, 09:04:06,VALID,919.598,VALID,0.0,VALID,96.053,VALID,258.209,VALID,20.79,VALID,340.0,VALID,0.764,
2017-07-14, 09:05:06,VALID,919.621,VALID,0.0,VALID,95.625,VALID,222.147,VALID,20.788,VALID,215.0,VALID,0.821,
2017-07-14, 09:06:06,VALID,919.634,VALID,0.0,VALID,95.438,VALID,225.947,VALID,20.79,VALID,174.0,VALID,1.08,
2017-07-14, 09:07:06,VALID,919.635,VALID,0.0,VALID,94.893,VALID,223.783,VALID,20.752,VALID,7.0,VALID,0.752,
2017-07-14, 09:08:06,VALID,919.643,VALID,0.0,VALID,95.82,VALID,229.579,VALID,20.831,VALID,68.0,VALID,0.791,
2017-07-14, 09:09:06,VALID,919.673,VALID,0.0,VALID,95.537,VALID,258.367,VALID,20.821,VALID,216.0,VALID,1.185,
2017-07-14, 09:10:06,VALID,919.668,VALID,0.0,VALID,95.132,VALID,254.033,VALID,20.79,VALID,87.0,VALID,1.088,
2017-07-14, 09:11:06,VALID,919.692,VALID,0.0,VALID,95.655,VALID,317.565,VALID,20.843,VALID,340.0,VALID,0.66,
2017-07-14, 09:12:06,VALID,919.704,VALID,0.0,VALID,95.38,VALID,351.966,VALID,20.882,VALID,248.0,VALID,0.76,
2017-07-14, 09:13:06,VALID,919.731,VALID,0.0,VALID,93.464,VALID,328.402,VALID,20.837,VALID,57.0,VALID,0.766,
2017-07-14, 09:14:06,VALID,919.714,VALID,0.0,VALID,94.329,VALID,358.614,VALID,20.92,VALID,63.0,VALID,0.6,
2017-07-14, 09:15:06,VALID,919.706,VALID,0.0,VALID,92.72,VALID,234.227,VALID,20.921,VALID,43.0,VALID,1.723,
2017-07-14, 09:16:06,VALID,919.736,VALID,0.0,VALID,93.4,VALID,229.302,VALID,20.877,VALID,27.0,VALID,1.101,
2017-07-14, 09:17:06,VALID,919.748,VALID,0.0,VALID,94.436,VALID,222.842,VALID,20.9,VALID,297.0,VALID,0.656,
2017-07-14, 09:18:06,VALID,919.73,VALID,0.0,VALID,91.715,VALID,200.263,VALID,20.786,VALID,17.0,VALID,1.897,
2017-07-14, 09:19:06,VALID,919.74,VALID,0.0,VALID,92.348,VALID,210.666,VALID,20.672,VALID,25.0,VALID,1.259,
2017-07-14, 09:20:06,VALID,919.765,VALID,0.0,VALID,92.228,VALID,206.746,VALID,20.602,VALID,7.0,VALID,2.037,
2017-07-14, 09:21:06,VALID,919.782,VALID,0.0,VALID,92.507,VALID,210.782,VALID,20.555,VALID,12.0,VALID,1.527,
2017-07-14, 09:22:06,VALID,919.777,VALID,0.0,VALID,92.721,VALID,213.078,VALID,20.525,VALID,12.0,VALID,2.289,
2017-07-14, 09:23:06,VALID,919.791,VALID,0.0,VALID,91.422,VALID,227.714,VALID,20.389,VALID,319.0,VALID,1.619,
2017-07-14, 09:24:06,VALID,919.816,VALID,0.0,VALID,92.143,VALID,231.67,VALID,20.341,VALID,278.0,VALID,0.627,
2017-07-14, 09:25:06,VALID,919.771,VALID,0.0,VALID,93.512,VALID,252.595,VALID,20.425,VALID,54.0,VALID,1.613,
2017-07-14, 09:26:06,VALID,919.749,VALID,0.0,VALID,92.649,VALID,250.383,VALID,20.463,VALID,344.0,VALID,2.043,
2017-07-14, 09:27:06,VALID,919.769,VALID,0.0,VALID,92.066,VALID,272.782,VALID,20.488,VALID,1.0,VALID,1.822,
2017-07-14, 09:28:06,VALID,919.784,VALID,0.0,VALID,92.772,VALID,329.566,VALID,20.552,VALID,27.0,VALID,1.379,
